Montana Department of Transportation

Main Content

Accidents and Incidents Report

Hourly Weather Roundup

ASUS45 KTFX 241910
RWRMT 
MONTANA REGIONAL WEATHER ROUNDUP
NATIONAL WEATHER SERVICE GREAT FALLS MT
100 PM MDT SUN MAY 24 2015

NOTE: "FAIR" INDICATES FEW OR NO CLOUDS BELOW 12000 FEET WITH NO
SIGNIFICANT WEATHER AND/OR OBSTRUCTIONS TO VISIBILITY.

MTZ001.007-043-242000-
WEST OF THE DIVIDE
  
CITY           SKY/WX    TMP DP  RH WIND       PRES   REMARKS
KALISPELL      PTCLDY    72  36  26 VRB6      29.98F                  
MISSOULA       PTSUNNY   68  36  30 E17G23    30.01S                  
BUTTE          CLOUDY    54  34  46 N6        30.06F                  
MULLAN PASS    PTSUNNY   57  34  41 CALM      30.07F                  
DEER LODGE       N/A     55  37  50 N7        30.10F                  
EUREKA           N/A     73  34  23 S7        29.97F                  
HAMILTON         N/A     66  41  39 NW6       30.01F                  
LIBBY            N/A     72  37  28 E5        29.96F                  
PLAINS           N/A     73  41  31 CALM      29.98F                  
RONAN            N/A     69  43  39 W5        30.05F                  
THOMPSON FALLS   N/A     74  40  29 E8        30.00F                  
--------------------------------

MTZ008-052.055-242000-
SOUTHWEST MONTANA
  
CITY           SKY/WX    TMP DP  RH WIND       PRES   REMARKS
BOZEMAN        CLOUDY    55  44  66 S3        30.03F                  
DILLON         PTSUNNY   58  35  42 N14       30.01F                  
W YELLOWSTONE  CLOUDY    52  34  50 NE12      30.00F                  
THREE FORKS      N/A     60  60 100 N1        30.02F                  
--------------------------------

MTZ009-010-012-014-046-048-049-054-242000-
EAST SLOPES AND CENTRAL MONTANA
  
CITY           SKY/WX    TMP DP  RH WIND       PRES   REMARKS
CUT BANK       PTSUNNY   65  38  36 SE13      30.07F                  
GREAT FALLS    CLOUDY    58  43  57 NE8       30.06F                  
MALMSTROM AFB  PTSUNNY   56  44  62 E2        30.07F                  
HELENA         CLOUDY    60  42  51 N13       30.05S                  
CONRAD           N/A     61  49  64 NE7       30.10S                  
--------------------------------

MTZ011-013-016-021-045-047-050-051-242000-
NORTH CENTRAL MONTANA
  
CITY           SKY/WX    TMP DP  RH WIND       PRES   REMARKS
HAVRE          MOSUNNY   74  39  28 SE17G24   30.01F                  
LEWISTOWN      CLOUDY    56  45  66 SE9       30.06F                  
CHINOOK          N/A     72  39  30 E9G18     30.01F                  
FORT BENTON      N/A     64  43  45 E7        30.06F                  
--------------------------------

MTZ017.020-022.027-061-062-242000-
NORTHEAST MONTANA
  
CITY           SKY/WX    TMP DP  RH WIND       PRES   REMARKS
GLASGOW        MOSUNNY   74  39  28 SE13      29.98F                  
JORDAN           N/A     67  44  43 NE10      30.00F                  
SIDNEY         PTSUNNY   66  48  52 N6        29.99F                  
WOLF POINT     SUNNY     76  43  30 E13G21    29.98F                  
MALTA            N/A     73  45  36 CALM      29.97F                  
PLENTYWOOD       N/A     73  34  23 E16G22    29.98F                  
POPLAR           N/A     75  39  27 E20G28    29.97F                  
SCOBEY           N/A     76  35  22 E17       29.99F                  
--------------------------------

MTZ028.42-056.058-242000-
SOUTHCENTRAL AND SOUTHEAST MONTANA
  
CITY           SKY/WX    TMP DP  RH WIND       PRES   REMARKS
BAKER          CLOUDY    59  51  75 E15       30.01S                  
BILLINGS       CLOUDY    53  49  86 NE7       30.02F                  
LIVINGSTON     CLOUDY    55  45  68 E17       30.03F                  
MILES CITY     CLOUDY    62  46  55 VRB6      29.99F                  
BIG TIMBER       N/A     50  46  87 N9        30.05F                  
EKALAKA          N/A     54  50  86 NE14      29.97F                  
FORSYTH          N/A     61  46  59 E9G17     29.99F                  
LAUREL           N/A     55  46  71 N9        30.01SROUNDUP          N/A     55  50  83 E2        29.95F                  
--------------------------------

REGIONAL REPORTS...DAKOTAS
  
CITY           SKY/WX    TMP DP  RH WIND       PRES   REMARKS
WILLISTON      SUNNY     75  40  28 E16G25    29.99F                  
MINOT          MOSUNNY   74  43  32 NE15G21   29.98F                  
DICKINSON      CLOUDY    63  50  62 E9        29.98F                  
BEACH          CLOUDY    63  50  63 E10G17    30.01S                  
CROSBY         FAIR      75  37  25 E8G17     29.99F                  
WATFORD CITY   MOCLDY    68  48  49 E8        29.98S                  
BISMARCK       CLOUDY    67  49  52 E14       29.98F                  
GRAND FORKS    CLOUDY    75  48  38 SE7       29.98F                  
FARGO          CLOUDY    69  51  52 E15       29.97F                  
BUFFALO SD       N/A     56  52  86 E16       29.91F                  
RAPID CITY     LGT RAIN  55  53  93 NE12      29.91F FOG              
--------------------------------

REGIONAL REPORTS...WYOMING/IDAHO/WASHINGTON
  
CITY           SKY/WX    TMP DP  RH WIND       PRES   REMARKS
GILLETTE       LGT RAIN  52  49  89 NE14      29.91F FOG              
SHERIDAN       RAIN      50  48  93 N10       29.98S FOG              
BUFFALO WY     RAIN      49  47  93 N15G26    29.96F FOG              
CODY           CLOUDY    48  45  87 N12       30.00F                  
YELLOWSTONE LA   N/A     49  31  49 VRB6      30.03F                  
IDAHO FALLS    LGT RAIN  62  46  55 NW8       29.93F                  
SALMON         PTSUNNY   63  41  45 N5        29.96F                  
BOISE          MOSUNNY   71  47  42 NW6       29.91F                  
SPOKANE        PTSUNNY   73  48  41 VRB3      29.96F                  
--------------------------------

REGIONAL REPORTS...ALBERTA
  
CITY           SKY/WX    TMP DP  RH WIND       PRES   REMARKS
EDMONTON       SUNNY     77  32  19 SW7       29.96F                  
CALGARY        CLOUDY    70  30  23 SE16G29   30.03F                  
LETHBRIDGE     PTSUNNY   68  37  32 E10       30.04F                  
MEDICINE HAT   PTSUNNY   77  36  22 SE10      30.02F                  
--------------------------------

REGIONAL REPORTS...SASKATCHEWAN
  
CITY           SKY/WX    TMP DP  RH WIND       PRES   REMARKS
SWIFT CURRENT  MOSUNNY   75  28  17 SE8       30.02F                  
REGINA         PTSUNNY   77  37  24 N7G18     29.99F                  
SASKATOON      MOSUNNY   81  36  19 W6        30.00F                  
--------------------------------